Погода Konstanz

Погода Konstanz : погода сейчас, прогноз погоды и архив. Всё, что Вы хотите узнать о погоде Konstanz!

Поиск расширенной информации на нашем сайте:

Другие новости

Новости СМИ2

Главная страница сайта

Новости сайта

03.07.2017

Напоминаем, что на нашем специализированном сайте Метеоцентр.Азия вы можете получить высокодетализированные автоматические прогнозы погоды по пунктам России, СНГ и мира в авиационном формате (включающие направление и скорость ветра, видимость, явления погоды, количество и форму облачности, нижнюю и верхнюю границу облачности).


Погода Konstanz - сегодня

Время (UTC), дата Ветер
(°,м/с) 
Видим.   Явления Облачность Т
(°С)
Тd
(°С)
f(%) Тe
(°С)
Pmin
(гПа)
dP
(гПа)
Po
(мм)
O2
(г/м3)
Тmin Tmax R s Состояние
почвы
03 10.01.16 280 (З) 0200 м  пыльная буря  10/10 <0100 м 
+3.5 +3.5 100 +4  1002.7  -0.6  712  283  +0        сухая 
06 10.01.16 090 (В) 0100 м  слаб. дождь{туман}  ?/?  
+3.5 +3.5 100 +3  1001.4  -1.2  711  282  +0  +5.8  0.1    сухая 
09 10.01.16 230 (ЮЗ) 18000 м    4/ 840 м 
[]
+5 +4.3 95 +4  1002.9  1.7  713  281  +4.7    0.5    сухая 
12 10.01.16 210 (ЮЗ) 35000 м  в посл. час дождь{туман}  9/8 360 м средняя 
[Cu Sc|Ac As]
+6 +4 87 +5  1001.6  -1.1  712  280  +33.7    0.5    сухая 
15 10.01.16 030 (СВ) 12000 м  дождь  10/6 270 м средняя 
[Cu Sc|As op]
+4.9 +4.3 96 +6  1000.2  -1.5  711  281  +4.4      сухая 
18 10.01.16 100 (В) 12000 м  в посл. час дождь со снегом{морось}  10/10 150 м 
+4.8 +4.6 99 +4  999.7  -0.5  710  280  +0  +6.3    сухая 
21 10.01.16 240 (ЮЗ) 22000 м  слаб. дождь{морось}  9/9 720 м 
+5.8 +4.6 92 +4  1000.7  1.1  711  280  +0      сухая 
00 11.01.16 230 (ЮЗ) 45000 м  слаб. дождь{морось}  8/8 750 м 
+5.6 +4.2 91 +5  1000.1  -0.6  711  280  +0    0.7    сухая 
03 11.01.16 150 (ЮВ) 30000 м  слаб. дождь{морось}  8/8 500 м 
+4.9 +4.4 97 +6  997.8  -2.3  709  280  +0      сухая 
06 11.01.16 010 (С) 30000 м  слаб. дождь{морось}  10/9 180 м средняя 
[Cu Sc|As op]
+4 +3.3 95 +4  994.7  -3.1  707  280  +0  +6.3    сухая 
09 11.01.16 250 (З) 5000 м  слаб. ливневой дождь  9/9 180 м 
[Cu Sc]
+4 +3.6 97 +5  994.6  -0.1  707  280  +5.1      сухая 
12 11.01.16 260 (З) 7000 м  ливневой дождь  10/10 300 м 
[Cu med, cong]
+5.7 +4.1 89 +4  994.7  0.4  707  278  +24.3      сухая 
15 11.01.16 240 (ЮЗ) 40000 м  в посл. час ливневой дождь  9/5 300 м средняя, верхняя 
[Cu Sc|Ac trans|Ci sp]
+6.4 +4.1 85 +4  993.8  -0.7  706  277  +25      сухая 
18 11.01.16 240 (ЮЗ) 6{23}  70000 м  туман местами{ливн. осадки, дождь}  3/3 1050 м 
+7.3 +1.7 68 +5  994.8  1.1  707  277  +0  +7.9  0.1    сухая 
21 11.01.16 260 (З) 6{16}  60000 м  туман местами{дождь, морось}  1/1 1350 м 
+4.7 +2.6 86 +2  997.9  2.5  709  280  +0      сухая 
00 12.01.16 240 (ЮЗ) 12000 м  слаб. дождь{снег}  9/9 300 м 
+4.8 +2.3 84 +1  998.2  0.3  709  280         
03 12.01.16 250 (З) 7{16}  12000 м  переохл. морось (гололёд){дождь}  9/9 540 м 
+4.6 +2.2 84 +2  999.2  0.9  710  281  +0    0.8    сухая 
06 12.01.16 260 (З) 25000 м  слаб. дождь{снег}  9/6 300 м средняя, верхняя 
[St|Ac trans|Ci ing]
+4.8 +2.4 84 +2  999.2  710  281         
09 12.01.16 260 (З) 25000 м  в посл. час ливневой дождь  9/8 300 м кучево-дожд., средняя, верхняя 
[Cb calv|Ac trans|Ci ing]
+5.2 +2.5 83 +2  1002.5  3.2  712  281           
12 12.01.16 250 (З) 6{19}  16000 м  в посл. час ливневой дождь  8/6 360 м кучево-дожд., средняя, верхняя 
[Cb calv|Ac lent|Ci ing]
+6.5 +2.9 78 +4  1004.6  2.2  714  280  -29.8    0.0    сухая 
15 12.01.16 290 (З) 20000 м  в посл. час ливневой дождь  9/9 400 м кучево-дожд. 
[Cb calv]
+4.9 +3.6 91 +4  1005.7  0.8  715  282  +29      сухая 
18 12.01.16 240 (ЮЗ) 6{13}  70000 м  туман местами{ливн. осадки, дождь}  5/5 420 м 
+3.8 +1.8 87 +1  1007.5  1.5  716  284  +0  +6.8  0.8    сухая 
21 12.01.16 240 (ЮЗ) 7{14}  50000 м  переохл. морось (гололёд){дождь}  9/9 600 м 
+4 +1 81 +1  1008.8  1.2  717  284  +0    0.0    сухая 
00 13.01.16 250 (З) 7{14}  70000 м  в посл. час дождь со снегом{морось}  4/0 
+2.8 +0.1 82 -1  1011  1.9  718  286  +0    0.7    сухая 
03 13.01.16 240 (ЮЗ) 7{13}  17000 м  слаб. дождь{морось}  8/8 360 м 
+3.2 -0.6 76 1012.6  1.6  719  286  +0    0.0    сухая 
Время (UTC), дата Ветер
(°,м/с) 
Видим.   Явления Облачность Т
(°С)
Тd
(°С)
f(%) Тe
(°С)
Pmin
(гПа)
dP
(гПа)
Po
(мм)
O2
(г/м3)
Тmin Tmax R s Состояние
почвы

Для получения пояснительной информации подведите курсор к названию столбца.

ПОГОДА Konstanz - архив

Всё, что Вы хотите узнать о погоде Konstanz - удобно и подробно!

Выберите нужную дату (начиная с 1 января 2015* года) и нажмите кнопку "Найти".
Будут отображены архивные сводки погоды по пункту Konstanz, начиная с указанной даты.


Отображать данные в формате CSV (для использования в таблицах Excel)


Внимание! Наш архив погоды предназначен исключительно для личного некоммерческого использования в познавательных целях. Если Вам необходимы официальные справки о состоянии погоды (для производственных, юридических, коммерческих и т.п. целей), обращайтесь в органы Росгидромета.

*Примечание: данная дата относится к архиву по метеостанциям СССР (Россия, СНГ, Балтия).
Архив по метеостанциям Зарубежной Европы и Азии (кроме Китая) хранится 10 дней, по другим регионам земного шара (Китай, Африка, Америка, Австралия, Океания) - 1 день.

Konstanz - район местоположения метеостанции


Название, широта, долгота, высота метеостанции:
Konstanz 47.7°ш. 9.2°д. 447 м над ур. моря [Germany]

Дополнительная информация

В oтличие oт бoльшинства пoгoдных сайтoв мы публикуем пoдрoбную метеoинфoрмацию в детальнoм прoфессиoнальнoм фoрмате.

Характеристики температуры и влажнoсти вoздуха измеряются на высoте 2 м в тени вдали oт зданий и деревьев.
Скoрoсть ветра измеряется на высoте 10 м (на урoвне рoста челoвека скoрoсть ветра ниже в 1.5-2 раза). Если метеoстанция нахoдится в гoрoде или в лесу, тo скoрoсть ветра занижена на 2-4 м/с пo сравнению с oткрытым местoм. Скoрoсть ветра над акватoриями крупных рек и oзёр, а также на вершинах хoлмoв на 2-5 м/с выше, чем в oбычных услoвиях.
Атмoсфернoе давление в разных тoчках местнoсти мoжет значительнo oтличаться oт давления на метеoстанции, в зависимoсти oт услoвий рельефа (при пoдъёме на 10 м давление пoнижается примернo на 1 мм рт.ст.).